| time (UTC) | temp F | wind direction | speed MPH | gust MPH | rain 1hr in | rain 24hr in | rain mn in | humidity % | barometer mb |
| 20260504050346 | 40 | 190 | 0.0 | 0.0 | 0.00 | 0.00 | 0.00 | 83 | 1016.8 |
| 20260504045843 | 40 | 190 | 0.0 | 0.0 | 0.00 | 0.00 | 0.00 | 83 | 1016.8 |
| 20260504045343 | 40 | 190 | 0.0 | 0.0 | 0.00 | 0.00 | 0.00 | 83 | 1017.0 |
| 20260504044841 | 40 | 190 | 0.0 | 0.0 | 0.00 | 0.00 | 0.00 | 83 | 1016.9 |
| 20260504044338 | 40 | 190 | 0.0 | 0.0 | 0.00 | 0.00 | 0.00 | 83 | 1016.9 |
| 20260504043835 | 40 | 190 | 0.0 | 0.0 | 0.00 | 0.00 | 0.00 | 82 | 1016.8 |
| 20260504043332 | 40 | 190 | 0.0 | 0.0 | 0.00 | 0.00 | 0.00 | 82 | 1016.7 |
| 20260504042829 | 41 | 190 | 0.0 | 0.0 | 0.00 | 0.00 | 0.00 | 82 | 1016.7 |
| 20260504042325 | 41 | 190 | 0.0 | 0.0 | 0.00 | 0.00 | 0.00 | 82 | 1016.7 |
| 20260504041822 | 41 | 190 | 0.0 | 0.0 | 0.00 | 0.00 | 0.00 | 81 | 1016.7 |
| 20260504041318 | 41 | 190 | 0.0 | 0.0 | 0.00 | 0.00 | 0.00 | 81 | 1016.6 |
| 20260504040815 | 41 | 190 | 0.0 | 0.0 | 0.00 | 0.00 | 0.00 | 81 | 1016.6 |
| 20260504040312 | 41 | 190 | 0.0 | 0.0 | 0.00 | 0.00 | 0.00 | 81 | 1016.5 |
| 20260504035808 | 41 | 190 | 0.0 | 0.0 | 0.00 | 0.00 | 0.00 | 81 | 1016.6 |
| 20260504035305 | 41 | 190 | 0.0 | 0.0 | 0.00 | 0.00 | 0.00 | 81 | 1016.6 |
| 20260504034802 | 41 | 190 | 0.0 | 0.0 | 0.00 | 0.00 | 0.00 | 81 | 1016.5 |
| 20260504034300 | 41 | 190 | 0.0 | 0.0 | 0.00 | 0.00 | 0.00 | 80 | 1016.6 |
| 20260504033757 | 41 | 190 | 0.0 | 0.0 | 0.00 | 0.00 | 0.00 | 80 | 1016.6 |
| 20260504033255 | 41 | 190 | 0.0 | 0.0 | 0.00 | 0.00 | 0.00 | 79 | 1016.7 |
| 20260504032751 | 42 | 190 | 0.0 | 0.0 | 0.00 | 0.00 | 0.00 | 79 | 1016.5 |
| 20260504032248 | 41 | 190 | 0.0 | 0.0 | 0.00 | 0.00 | 0.00 | 78 | 1016.7 |
| 20260504031745 | 42 | 190 | 0.0 | 0.0 | 0.00 | 0.00 | 0.00 | 78 | 1016.6 |
| 20260504031243 | 42 | 190 | 0.0 | 0.0 | 0.00 | 0.00 | 0.00 | 78 | 1016.6 |
| 20260504030738 | 42 | 190 | 0.0 | 0.0 | 0.00 | 0.00 | 0.00 | 77 | 1016.7 |
| 20260504030236 | 42 | 190 | 0.0 | 0.0 | 0.00 | 0.00 | 0.00 | 77 | 1016.5 |
| 20260504025732 | 42 | 190 | 0.0 | 0.0 | 0.00 | 0.00 | 0.00 | 75 | 1016.6 |
| 20260504025229 | 43 | 190 | 0.0 | 0.0 | 0.00 | 0.00 | 0.00 | 74 | 1016.5 |
| 20260504024726 | 43 | 190 | 0.0 | 0.0 | 0.00 | 0.00 | 0.00 | 74 | 1016.5 |
| 20260504024222 | 43 | 190 | 0.0 | 0.0 | 0.00 | 0.00 | 0.00 | 73 | 1016.6 |
| 20260504023719 | 44 | 190 | 0.0 | 0.0 | 0.00 | 0.00 | 0.00 | 72 | 1016.5 |
| 20260504023215 | 44 | 190 | 0.0 | 0.0 | 0.00 | 0.00 | 0.00 | 72 | 1016.5 |
| 20260504022712 | 44 | 190 | 0.0 | 0.0 | 0.00 | 0.00 | 0.00 | 71 | 1016.4 |
| 20260504022208 | 45 | 190 | 0.0 | 0.0 | 0.00 | 0.00 | 0.00 | 70 | 1016.6 |
| 20260504021706 | 45 | 190 | 0.0 | 0.0 | 0.00 | 0.00 | 0.00 | 69 | 1016.7 |
| 20260504021202 | 45 | 190 | 0.0 | 0.0 | 0.00 | 0.00 | 0.00 | 69 | 1016.8 |
| 20260504020659 | 45 | 190 | 0.0 | 0.0 | 0.00 | 0.00 | 0.00 | 68 | 1016.7 |
| 20260504020155 | 46 | 190 | 0.0 | 0.0 | 0.00 | 0.00 | 0.00 | 68 | 1016.6 |
| 20260504015652 | 46 | 190 | 0.0 | 0.0 | 0.00 | 0.00 | 0.00 | 67 | 1016.4 |
| 20260504015148 | 46 | 190 | 0.0 | 0.0 | 0.00 | 0.00 | 0.00 | 67 | 1016.6 |
| 20260504014644 | 46 | 189 | 0.0 | 0.0 | 0.00 | 0.00 | 0.00 | 67 | 1016.5 |
| 20260504014141 | 46 | 190 | 0.0 | 0.0 | 0.00 | 0.00 | 0.00 | 65 | 1016.6 |
| 20260504013639 | 47 | 189 | 0.0 | 0.0 | 0.00 | 0.00 | 0.00 | 64 | 1016.3 |
| 20260504013136 | 47 | 190 | 0.0 | 0.0 | 0.00 | 0.00 | 0.00 | 62 | 1016.4 |
| 20260504012633 | 47 | 190 | 0.0 | 0.0 | 0.00 | 0.00 | 0.00 | 61 | 1016.4 |
| 20260504012131 | 48 | 181 | 0.0 | 0.0 | 0.00 | 0.00 | 0.00 | 60 | 1016.3 |
| 20260504011627 | 48 | 196 | 0.0 | 0.0 | 0.00 | 0.00 | 0.00 | 59 | 1016.2 |
| 20260504011124 | 49 | 217 | 1.0 | 1.0 | 0.00 | 0.00 | 0.00 | 57 | 1016.2 |
| 20260504010620 | 49 | 194 | 0.0 | 0.0 | 0.00 | 0.00 | 0.00 | 56 | 1016.2 |
| 20260504010116 | 49 | 194 | 0.0 | 0.0 | 0.00 | 0.00 | 0.00 | 56 | 1015.9 |
| 20260504005613 | 49 | 194 | 0.0 | 0.0 | 0.00 | 0.00 | 0.00 | 56 | 1016.0 |
| 20260504005110 | 50 | 194 | 0.0 | 0.0 | 0.00 | 0.00 | 0.00 | 55 | 1015.9 |
| 20260504004608 | 50 | 194 | 0.0 | 0.0 | 0.00 | 0.00 | 0.00 | 54 | 1015.9 |
| 20260504004105 | 51 | 194 | 0.0 | 0.0 | 0.00 | 0.00 | 0.00 | 52 | 1015.8 |
| 20260504003600 | 51 | 193 | 0.0 | 0.0 | 0.00 | 0.00 | 0.00 | 51 | 1015.7 |
| 20260504003057 | 52 | 193 | 0.0 | 0.0 | 0.00 | 0.00 | 0.00 | 51 | 1015.7 |
| 20260504002555 | 52 | 193 | 0.0 | 0.0 | 0.00 | 0.00 | 0.00 | 49 | 1015.4 |
| 20260504002052 | 53 | 193 | 0.0 | 0.0 | 0.00 | 0.00 | 0.00 | 48 | 1015.4 |
| 20260504001550 | 53 | 193 | 0.0 | 0.0 | 0.00 | 0.00 | 0.00 | 43 | 1015.5 |
| 20260504001045 | 54 | 193 | 0.0 | 0.0 | 0.00 | 0.00 | 0.00 | 41 | 1015.2 |
| 20260504000543 | 54 | 188 | 0.0 | 0.0 | 0.00 | 0.00 | 0.00 | 42 | 1015.3 |
| 20260504000040 | 55 | 187 | 0.0 | 0.0 | 0.00 | 0.00 | 0.00 | 39 | 1015.3 |
| 20260503235538 | 56 | 178 | 0.0 | 0.0 | 0.00 | 0.00 | 0.00 | 38 | 1015.2 |
| 20260503235035 | 56 | 190 | 0.0 | 1.0 | 0.00 | 0.00 | 0.00 | 37 | 1015.0 |
| 20260503234532 | 56 | 190 | 0.0 | 0.0 | 0.00 | 0.00 | 0.00 | 37 | 1015.1 |
| 20260503234031 | 57 | 259 | 1.0 | 2.0 | 0.00 | 0.00 | 0.00 | 36 | 1014.8 |
| 20260503233527 | 57 | 163 | 0.0 | 0.0 | 0.00 | 0.00 | 0.00 | 36 | 1014.9 |
| 20260503233023 | 58 | 89 | 2.0 | 3.0 | 0.00 | 0.00 | 0.00 | 35 | 1014.7 |
| 20260503232520 | 58 | 343 | 2.0 | 2.0 | 0.00 | 0.00 | 0.00 | 34 | 1014.8 |
| 20260503232018 | 59 | 21 | 4.0 | 6.0 | 0.00 | 0.00 | 0.00 | 34 | 1014.8 |
| 20260503231515 | 59 | 167 | 1.0 | 1.0 | 0.00 | 0.00 | 0.00 | 33 | 1014.6 |
| 20260503231012 | 59 | 212 | 1.0 | 1.0 | 0.00 | 0.00 | 0.00 | 34 | 1014.7 |
| 20260503230508 | 59 | 9 | 4.0 | 4.0 | 0.00 | 0.00 | 0.00 | 33 | 1014.7 |
| 20260503230006 | 60 | 246 | 4.0 | 4.0 | 0.00 | 0.00 | 0.00 | 32 | 1014.4 |
| 20260503225503 | 60 | 169 | 2.0 | 3.0 | 0.00 | 0.00 | 0.00 | 32 | 1014.4 |
| 20260503224958 | 60 | 210 | 1.0 | 1.0 | 0.00 | 0.00 | 0.00 | 33 | 1014.4 |
| 20260503224455 | 60 | 258 | 1.0 | 1.0 | 0.00 | 0.00 | 0.00 | 31 | 1014.5 |
| 20260503223953 | 60 | 303 | 1.0 | 1.0 | 0.00 | 0.00 | 0.00 | 32 | 1014.4 |
| 20260503223451 | 60 | 330 | 5.0 | 7.0 | 0.00 | 0.00 | 0.00 | 31 | 1014.5 |
| 20260503222946 | 60 | 211 | 1.0 | 2.0 | 0.00 | 0.00 | 0.00 | 33 | 1014.3 |
| 20260503222445 | 60 | 195 | 4.0 | 7.0 | 0.00 | 0.00 | 0.00 | 31 | 1014.4 |
| 20260503221942 | 59 | 58 | 6.0 | 8.0 | 0.00 | 0.00 | 0.00 | 31 | 1014.4 |
| 20260503221440 | 60 | 82 | 2.0 | 3.0 | 0.00 | 0.00 | 0.00 | 32 | 1014.4 |
| 20260503220937 | 60 | 191 | 2.0 | 3.0 | 0.00 | 0.00 | 0.00 | 32 | 1014.4 |
| 20260503220433 | 60 | 282 | 6.0 | 8.0 | 0.00 | 0.00 | 0.00 | 31 | 1014.5 |
| 20260503215931 | 60 | 264 | 3.0 | 4.0 | 0.00 | 0.00 | 0.00 | 32 | 1014.5 |
| 20260503215427 | 60 | 306 | 3.0 | 3.0 | 0.00 | 0.00 | 0.00 | 31 | 1014.4 |
| 20260503214925 | 59 | 313 | 5.0 | 7.0 | 0.00 | 0.00 | 0.00 | 31 | 1014.4 |
| 20260503214423 | 60 | 246 | 2.0 | 4.0 | 0.00 | 0.00 | 0.00 | 31 | 1014.6 |
| 20260503213920 | 60 | 271 | 5.0 | 6.0 | 0.00 | 0.00 | 0.00 | 31 | 1014.3 |
| 20260503213418 | 59 | 260 | 4.0 | 6.0 | 0.00 | 0.00 | 0.00 | 31 | 1014.2 |
| 20260503212914 | 59 | 16 | 4.0 | 6.0 | 0.00 | 0.00 | 0.00 | 31 | 1014.2 |
| 20260503212412 | 59 | 24 | 2.0 | 2.0 | 0.00 | 0.00 | 0.00 | 33 | 1014.2 |
| 20260503211909 | 60 | 201 | 2.0 | 2.0 | 0.00 | 0.00 | 0.00 | 33 | 1014.1 |
| 20260503211405 | 59 | 214 | 2.0 | 2.0 | 0.00 | 0.00 | 0.00 | 33 | 1014.2 |
| 20260503210901 | 59 | 307 | 5.0 | 9.0 | 0.00 | 0.00 | 0.00 | 35 | 1014.2 |
| 20260503210358 | 59 | 348 | 9.0 | 14.0 | 0.00 | 0.00 | 0.00 | 33 | 1014.1 |
| 20260503205853 | 59 | 171 | 1.0 | 1.0 | 0.00 | 0.00 | 0.00 | 34 | 1014.3 |
| 20260503205350 | 58 | 318 | 4.0 | 4.0 | 0.00 | 0.00 | 0.00 | 34 | 1014.2 |
| 20260503204846 | 59 | 193 | 4.0 | 8.0 | 0.00 | 0.00 | 0.00 | 34 | 1014.2 |
| 20260503204343 | 59 | 262 | 3.0 | 4.0 | 0.00 | 0.00 | 0.00 | 34 | 1014.4 |
| 20260503203841 | 59 | 327 | 2.0 | 3.0 | 0.00 | 0.00 | 0.00 | 35 | 1014.2 |
| 20260503203338 | 58 | 246 | 5.0 | 8.0 | 0.00 | 0.00 | 0.00 | 34 | 1014.3 |
| 20260503202835 | 58 | 293 | 4.0 | 4.0 | 0.00 | 0.00 | 0.00 | 34 | 1014.2 |
| 20260503202333 | 58 | 347 | 5.0 | 9.0 | 0.00 | 0.00 | 0.00 | 34 | 1014.3 |
| 20260503201831 | 60 | 346 | 4.0 | 6.0 | 0.00 | 0.00 | 0.00 | 34 | 1014.6 |
| 20260503201328 | 60 | 346 | 4.0 | 6.0 | 0.00 | 0.00 | 0.00 | 34 | 1014.6 |
| 20260503200825 | 59 | 132 | 1.0 | 2.0 | 0.00 | 0.00 | 0.00 | 34 | 1014.3 |
| 20260503200321 | 59 | 113 | 3.0 | 6.0 | 0.00 | 0.00 | 0.00 | 36 | 1014.6 |
| 20260503195819 | 59 | 301 | 9.0 | 11.0 | 0.00 | 0.00 | 0.00 | 34 | 1014.3 |
| 20260503195315 | 59 | 289 | 3.0 | 3.0 | 0.00 | 0.00 | 0.00 | 38 | 1014.3 |
| 20260503194813 | 58 | 214 | 2.0 | 3.0 | 0.00 | 0.00 | 0.00 | 35 | 1014.7 |
| 20260503194308 | 58 | 246 | 4.0 | 7.0 | 0.00 | 0.00 | 0.00 | 36 | 1014.4 |
| 20260503193804 | 58 | 246 | 4.0 | 7.0 | 0.00 | 0.00 | 0.00 | 36 | 1014.4 |
| 20260503193300 | 58 | 210 | 4.0 | 6.0 | 0.00 | 0.00 | 0.00 | 35 | 1014.6 |
| 20260503192756 | 57 | 205 | 1.0 | 2.0 | 0.00 | 0.00 | 0.00 | 40 | 1014.4 |
| 20260503192252 | 57 | 12 | 4.0 | 7.0 | 0.00 | 0.00 | 0.00 | 37 | 1014.9 |
| 20260503191749 | 57 | 224 | 1.0 | 2.0 | 0.00 | 0.00 | 0.00 | 39 | 1014.8 |
| 20260503191246 | 57 | 322 | 4.0 | 4.0 | 0.00 | 0.00 | 0.00 | 39 | 1014.8 |
| 20260503190743 | 56 | 357 | 6.0 | 7.0 | 0.00 | 0.00 | 0.00 | 37 | 1014.9 |
| 20260503190239 | 56 | 234 | 4.0 | 6.0 | 0.00 | 0.00 | 0.00 | 40 | 1015.1 |
| 20260503185731 | 56 | 321 | 6.0 | 9.0 | 0.00 | 0.00 | 0.00 | 39 | 1015.3 |
| 20260503185226 | 56 | 321 | 8.0 | 10.0 | 0.00 | 0.00 | 0.00 | 38 | 1015.1 |
| 20260503184721 | 55 | 200 | 2.0 | 3.0 | 0.00 | 0.00 | 0.00 | 40 | 1015.3 |
| 20260503184218 | 55 | 157 | 2.0 | 3.0 | 0.00 | 0.00 | 0.00 | 42 | 1015.1 |
| 20260503183714 | 54 | 320 | 4.0 | 7.0 | 0.00 | 0.00 | 0.00 | 41 | 1015.2 |
| 20260503183212 | 55 | 0 | 4.0 | 7.0 | 0.00 | 0.00 | 0.00 | 41 | 1015.3 |
| 20260503182710 | 55 | 75 | 2.0 | 2.0 | 0.00 | 0.00 | 0.00 | 42 | 1015.4 |
| 20260503182208 | 54 | 259 | 4.0 | 10.0 | 0.00 | 0.00 | 0.00 | 42 | 1015.1 |
| 20260503181704 | 55 | 8 | 4.0 | 6.0 | 0.00 | 0.00 | 0.00 | 40 | 1015.5 |
| 20260503181201 | 54 | 294 | 5.0 | 8.0 | 0.00 | 0.00 | 0.00 | 41 | 1015.3 |
| 20260503180658 | 54 | 233 | 6.0 | 10.0 | 0.00 | 0.00 | 0.00 | 40 | 1015.2 |
| 20260503180156 | 53 | 310 | 1.0 | 1.0 | 0.00 | 0.00 | 0.00 | 42 | 1015.2 |
| 20260503175653 | 53 | 15 | 4.0 | 6.0 | 0.00 | 0.00 | 0.00 | 42 | 1015.2 |
| 20260503175150 | 54 | 22 | 3.0 | 3.0 | 0.00 | 0.00 | 0.00 | 41 | 1015.3 |
| 20260503174646 | 54 | 280 | 7.0 | 11.0 | 0.00 | 0.00 | 0.00 | 41 | 1015.2 |
| 20260503174144 | 56 | 272 | 4.0 | 6.0 | 0.00 | 0.00 | 0.00 | 38 | 1015.1 |
| 20260503173639 | 55 | 47 | 4.0 | 6.0 | 0.00 | 0.00 | 0.00 | 43 | 1015.2 |
| 20260503173136 | 54 | 220 | 4.0 | 6.0 | 0.00 | 0.00 | 0.00 | 41 | 1015.4 |
| 20260503172632 | 55 | 321 | 6.0 | 9.0 | 0.00 | 0.00 | 0.00 | 39 | 1015.0 |
| 20260503172129 | 55 | 332 | 5.0 | 7.0 | 0.00 | 0.00 | 0.00 | 40 | 1015.2 |
| 20260503171625 | 53 | 17 | 2.0 | 2.0 | 0.00 | 0.00 | 0.00 | 41 | 1015.4 |
| 20260503171123 | 54 | 337 | 9.0 | 13.0 | 0.00 | 0.00 | 0.00 | 39 | 1015.3 |
| 20260503170620 | 55 | 325 | 6.0 | 8.0 | 0.00 | 0.00 | 0.00 | 39 | 1015.3 |
| 20260503170116 | 54 | 6 | 5.0 | 7.0 | 0.00 | 0.00 | 0.00 | 39 | 1015.2 |
| 20260503151012 | 51 | 292 | 6.0 | 8.0 | 0.00 | 0.00 | 0.00 | 45 | 1015.7 |
| 20260503150508 | 52 | 254 | 1.0 | 2.0 | 0.00 | 0.00 | 0.00 | 50 | 1015.8 |
| 20260503131350 | 49 | 109 | 4.0 | 6.0 | 0.00 | 0.00 | 0.00 | 53 | 1015.8 |
| 20260503130847 | 49 | 13 | 3.0 | 4.0 | 0.00 | 0.00 | 0.00 | 54 | 1015.8 |
| 20260503130345 | 49 | 143 | 1.0 | 1.0 | 0.00 | 0.00 | 0.00 | 55 | 1015.8 |
| 20260503110739 | 44 | 312 | 1.0 | 1.0 | 0.00 | 0.00 | 0.00 | 61 | 1015.5 |
| 20260503110236 | 44 | 141 | 1.0 | 1.0 | 0.00 | 0.00 | 0.00 | 61 | 1015.3 |
| 20260503100202 | 43 | 164 | 0.0 | 1.0 | 0.00 | 0.00 | 0.00 | 63 | 1014.9 |
| 20260503090121 | 44 | 155 | 2.0 | 3.0 | 0.00 | 0.00 | 0.00 | 62 | 1014.8 |
| 20260503081556 | 44 | 160 | 0.0 | 0.0 | 0.00 | 0.00 | 0.00 | 62 | 1014.7 |
| 20260503081053 | 44 | 120 | 0.0 | 0.0 | 0.00 | 0.00 | 0.00 | 62 | 1014.8 |
| 20260503080549 | 44 | 301 | 1.0 | 2.0 | 0.00 | 0.00 | 0.00 | 62 | 1014.9 |
| 20260503072523 | 45 | 15 | 5.0 | 6.0 | 0.00 | 0.00 | 0.00 | 59 | 1014.7 |
| 20260503072020 | 45 | 312 | 2.0 | 2.0 | 0.00 | 0.00 | 0.00 | 59 | 1014.5 |
| 20260503071517 | 45 | 19 | 2.0 | 2.0 | 0.00 | 0.00 | 0.00 | 59 | 1014.7 |
| 20260503071014 | 46 | 237 | 1.0 | 1.0 | 0.00 | 0.00 | 0.00 | 60 | 1014.6 |
| 20260503070511 | 46 | 172 | 0.0 | 0.0 | 0.00 | 0.00 | 0.00 | 58 | 1014.8 |